Location: Unspecified
(49.2170°N, 0.0000°E)
Time: 21:04:09
(UTC+00:00)

SR - Visible Passes

Search period start: 21 January 2021 00:00
Search period end: 31 January 2021 00:00
Orbit: 575 x 880 km, 66.7° (Epoch: 21 January)

Date Brightness Start Highest point End Pass type
(mag) Time Alt. Az. Time Alt. Az. Time Alt. Az.
21 Jan ? 04:33:51 15° SSE 04:36:47 26° ESE 04:40:59 10° NE visible
21 Jan ? 06:13:41 10° SW 06:18:27 56° NW 06:23:44 10° NNE visible
22 Jan ? 03:46:37 13° ESE 03:47:32 13° ESE 03:49:54 10° ENE visible
22 Jan ? 05:26:05 29° SSW 05:28:38 84° ESE 05:33:57 10° NE visible
22 Jan ? 07:07:17 10° W 07:11:25 25° NNW 07:15:52 10° NNE visible
23 Jan ? 04:38:31 44° SE 04:39:00 45° ESE 04:43:59 10° NE visible
23 Jan ? 06:17:58 18° W 06:21:13 37° NW 06:26:13 10° NNE visible
24 Jan ? 03:50:44 22° E 03:50:44 22° E 03:53:42 10° ENE visible
24 Jan ? 05:30:09 49° W 05:31:12 60° NW 05:36:31 10° NNE visible
25 Jan ? 04:42:12 62° NE 04:42:12 62° NE 04:46:43 10° NE visible
25 Jan ? 06:21:38 18° WNW 06:24:07 26° NNW 06:28:40 10° NNE visible
26 Jan ? 03:54:09 26° ENE 03:54:09 26° ENE 03:56:44 10° NE visible
26 Jan ? 05:33:33 38° NW 05:33:56 38° NW 05:39:00 10° NNE visible
27 Jan ? 03:05:59 12° ENE 03:05:59 12° ENE 03:06:24 10° ENE visible
27 Jan ? 04:45:24 44° N 04:45:24 44° N 04:49:18 10° NNE visible
27 Jan ? 06:24:49 15° WNW 06:27:10 20° NNW 06:31:08 10° NNE visible
28 Jan ? 03:57:10 26° NE 03:57:10 26° NE 03:59:30 10° NE visible
28 Jan ? 05:36:34 27° NW 05:36:50 27° NW 05:41:28 10° NNE visible
29 Jan ? 03:08:52 13° NE 03:08:52 13° NE 03:09:29 10° NE visible
29 Jan ? 04:48:16 32° N 04:48:16 32° N 04:51:48 10° NNE visible
29 Jan ? 06:27:41 12° NW 06:30:18 16° NNW 06:33:39 10° NNE visible
30 Jan ? 03:59:56 24° NNE 03:59:56 24° NNE 04:02:05 10° NNE visible
30 Jan ? 05:39:20 20° NW 05:39:51 20° NNW 05:43:55 10° NNE visible
